Weather History for Baker, OR

Change the Weather History Date:

Saturday, February 16, 2013

  Actual Average Record
Temperature  
Mean Temperature 35 °F 30 °F  
Max Temperature 47 °F 40 °F 59 °F (1996)
Min Temperature 22 °F 19 °F -8 °F (1956)
Degree Days  
Heating Degree Days 30 35  
Month to date heating degree days 530 593  
Since 1 July heating degree days 4983 5116  
Cooling Degree Days 0 0  
Month to date cooling degree days 0 0  
Year to date cooling degree days 0 0  
Moisture  
Dew Point 29 °F    
Average Humidity 78    
Maximum Humidity 96    
Minimum Humidity 60    
Precipitation  
Precipitation 0.04 in 0.02 in 0.22 in (1981)
Month to date precipitation 0.23 0.33  
Year to date precipitation 1.07 1.13  
Sea Level Pressure  
Sea Level Pressure 30.17 in    
Wind  
Wind Speed 6 mph (West)    
Max Wind Speed 22 mph    
Max Gust Speed 28 mph    
Visibility 10 miles    
Events Rain , Snow    
T = Trace of Precipitation, MM = Missing Value Source: NWS Daily Summary

Daily Weather History Graph

Daily Weather History Graph

Search for Another Location

Airport:

Trip Planner

Search our weather history database for the weather conditions in past years. The results will help you decide how hot, cold, wet, or windy it might be!

Date:

Astronomy

Feb. 16, 2013 Rise Set
Actual Time 6:49 AM PST 5:21 PM PST
Civil Twilight 6:19 AM PST 5:51 PM PST
Nautical Twilight 5:45 AM PST 6:25 PM PST
Astronomical Twilight 5:11 AM PST 6:59 PM PST
Moon 9:46 AM PST (2/16) No Moon Set
Length of Visible Light 11h 31m
Length of Day
10h 31m
Waxing Crescent, 40% of the Moon is Illuminated
Feb 16
Waxing Crescent
Feb 17
First Quarter
Feb 25
Full
Mar 4
Last Quarter
Mar 11
New

Hourly Weather History & Observations

Time (PST) Temp. Windchill Dew Point Humidity Pressure Visibility Wind Dir Wind Speed Gust Speed Precip Events Conditions
12:53 AM 27.0 °F 21.6 °F 25.0 °F 92% 30.37 in 10.0 mi West 4.6 mph - N/A   Clear
1:53 AM 28.0 °F - 25.0 °F 88% 30.35 in 10.0 mi Calm Calm - N/A   Clear
2:53 AM 27.0 °F 23.0 °F 25.0 °F 92% 30.34 in 10.0 mi SW 3.5 mph - N/A   Clear
3:53 AM 26.1 °F 21.9 °F 24.1 °F 92% 30.32 in 10.0 mi SW 3.5 mph - N/A   Clear
4:53 AM 26.1 °F - 24.1 °F 92% 30.32 in 10.0 mi Calm Calm - N/A   Clear
5:53 AM 24.1 °F - 21.0 °F 88% 30.32 in 10.0 mi Calm Calm - N/A   Clear
6:53 AM 23.0 °F 18.4 °F 21.9 °F 96% 30.33 in 10.0 mi WNW 3.5 mph - N/A   Clear
7:53 AM 30.9 °F - 27.0 °F 85% 30.31 in 10.0 mi Calm Calm - N/A   Clear
8:53 AM 35.1 °F 32.2 °F 30.0 °F 82% 30.30 in 10.0 mi South 3.5 mph - N/A   Clear
9:53 AM 39.0 °F 36.8 °F 30.0 °F 70% 30.27 in 10.0 mi SW 3.5 mph - N/A   Clear
10:53 AM 41.0 °F 37.1 °F 30.9 °F 67% 30.24 in 10.0 mi WSW 5.8 mph - N/A   Clear
11:53 AM 44.1 °F 42.5 °F 33.1 °F 65% 30.18 in 10.0 mi WSW 3.5 mph - N/A   Clear
12:53 PM 46.0 °F 43.9 °F 34.0 °F 63% 30.14 in 10.0 mi West 4.6 mph - N/A   Clear
1:53 PM 45.0 °F 40.1 °F 34.0 °F 65% 30.12 in 10.0 mi West 9.2 mph - N/A   Clear
2:53 PM 46.9 °F - 34.0 °F 61% 30.08 in 10.0 mi WNW 6.9 mph - N/A   Overcast
3:53 PM 42.1 °F 37.7 °F 33.1 °F 70% 30.07 in 10.0 mi West 6.9 mph - N/A   Scattered Clouds
4:53 PM 39.9 °F 36.7 °F 33.1 °F 77% 30.06 in 10.0 mi SSW 4.6 mph - N/A   Mostly Cloudy
5:46 PM 37.4 °F 26.6 °F 33.8 °F 87% 30.00 in 8.0 mi NNW 21.9 mph - 0.00 in Snow Light Snow
5:53 PM 37.0 °F 26.7 °F 35.1 °F 93% 30.07 in 8.0 mi NNW 19.6 mph 27.6 mph 0.00 in Snow Light Snow
6:27 PM 37.4 °F - 33.8 °F 87% 30.02 in 6.0 mi Calm Calm - 0.02 in Rain Rain
6:50 PM 37.4 °F 34.9 °F 32.0 °F 81% 30.02 in 10.0 mi NNE 3.5 mph - 0.03 in   Overcast
6:53 PM 36.0 °F - 32.0 °F 86% 30.09 in 10.0 mi Calm Calm - 0.03 in   Mostly Cloudy
7:53 PM 37.0 °F 34.5 °F 30.0 °F 76% 30.07 in 10.0 mi Variable 3.5 mph - N/A   Partly Cloudy
8:53 PM 34.0 °F 24.6 °F 28.0 °F 79% 30.08 in 10.0 mi NW 13.8 mph 20.7 mph 0.01 in   Clear
9:53 PM 35.1 °F 27.4 °F 25.0 °F 67% 30.06 in 10.0 mi WSW 10.4 mph 16.1 mph N/A   Clear
10:53 PM 34.0 °F 23.8 °F 25.0 °F 70% 30.06 in 10.0 mi NNW 16.1 mph 27.6 mph N/A   Clear
11:53 PM 33.1 °F 23.0 °F 24.1 °F 70% 30.06 in 10.0 mi NNW 15.0 mph 20.7 mph N/A   Clear